Notices

What's New in latest Release from April 7th, 2021:

- Updated Glossary, including Speed of Maximum Gust, and Total Hourly Precipitation

- Updated national and regional climate services offices contacts and prices information

- Addition of station inventory lists for 1981-2010, 1971-2000, and 1961-1990 Normals.

If you haven't already, please take our survey and provide feedback about our website: https://eccc.sondage-survey.ca/f/LanguageSelection.aspx?s=442ca660-fcf1-47c0-95a9-59707d6fd709

Hourly Data Report for December 13, 2003

TORONTO CITY
ONTARIO

43°40'00.000" N
79°24'00.000" W
112.50 m
6158355
71508
XTO

Download Data

Hourly Data (December 2003)
Hourly Data Report for December 13, 2003
TIME
LST
Temp Definition
°C
Dew Point Definition
°C
Rel Hum Definition
%
Precip. Amount Definition
mm

Wind Dir Definition
10's deg

Wind Spd Definition
km/h
Visibility Definition
km
Stn Press Definition
kPa
Hmdx Definition


Wind Chill Definition


Weather Definition


00:00 -5.2 -8.9 75   LegendMM LegendMM LegendMM 101.07     LegendNANA
01:00 -5.1 -8.1 79   LegendMM LegendMM LegendMM 101.08     LegendNANA
02:00 -5.1 -7.8 81   LegendMM LegendMM LegendMM 101.18     LegendNANA
03:00 -5.1 -8.8 75   LegendMM LegendMM LegendMM 101.30     LegendNANA
04:00 -5.7 -10.2 71   LegendMM LegendMM LegendMM 101.33     LegendNANA
05:00 -6.4 -10.2 74   LegendMM LegendMM LegendMM 101.45     LegendNANA
06:00 -6.6 -10.2 76   LegendMM LegendMM LegendMM 101.54     LegendNANA
07:00 -7.3 -10.1 80   LegendMM LegendMM LegendMM 101.64     LegendNANA
08:00 -7.5 -11.3 74   LegendMM LegendMM LegendMM 101.67     LegendNANA
09:00 -6.4 -11.1 69   LegendMM LegendMM LegendMM 101.74     LegendNANA
10:00 -5.0 -10.6 65   LegendMM LegendMM LegendMM 101.78     LegendNANA
11:00 -3.7 -10.8 58   LegendMM LegendMM LegendMM 101.79     LegendNANA
12:00 -3.5 -9.2 65   LegendMM LegendMM LegendMM 101.75     LegendNANA
13:00 -3.8 -8.6 69   LegendMM LegendMM LegendMM 101.74     LegendNANA
14:00 -3.5 -8.5 68   LegendMM LegendMM LegendMM 101.68     LegendNANA
15:00 -3.3 -8.3 68   LegendMM LegendMM LegendMM 101.69     LegendNANA
16:00 -3.2 -8.5 67   LegendMM LegendMM LegendMM 101.70     LegendNANA
17:00 -3.3 -9.0 65   LegendMM LegendMM LegendMM 101.70     LegendNANA
18:00 -3.3 -9.4 63   LegendMM LegendMM LegendMM 101.72     LegendNANA
19:00 -3.3 -9.2 64   LegendMM LegendMM LegendMM 101.67     LegendNANA
20:00 -3.1 -8.8 65   LegendMM LegendMM LegendMM 101.59     LegendNANA
21:00 -2.7 -8.3 65   LegendMM LegendMM LegendMM 101.61     LegendNANA
22:00 -2.4 -8.2 64   LegendMM LegendMM LegendMM 101.55     LegendNANA
23:00                      

Notes on Data Quality.

Legend

  • E = Estimated
  • M = Missing
  • NA = Not Available*
  • [empty] = Indicates an unobserved value
Date modified: